Terug naar catalogus

STARLINK-35290

ActiefCommunicatieVLEO
NORAD 65846·PAYLOAD·🇺🇸 United States

Gelanceerd Sep 29, 2025 vanaf Vandenberg Space Force Base

Loading…

Volgende Passages (komende 24 uur)

TLE

VersSource: CelesTrak SupGP

Epoch: Sep 14, 2026, 22:42 UTC

1 65846C 25221Z   26257.94631944  .00050679  00000+0  14976-2 0  2575
2 65846  53.1568 285.7458 0001162  91.5244 103.3184 15.34358932    17

Volg STARLINK-35290 in realtime met AllMySat

Download on the App Store